VLG51VL LEZL-LFPO

Flight info

Callsign VLG51VL
Flight time 1h 54m
Altitude 38000
Route HIJ DCT PARKA DCT TLD DCT SIE DCT EDIGO DCT DGO L176 LUSEM DCT LULUT DCT TUDRA DCT BEVOL UT158 AMB
Aircraft A321/M-SDE3FGHIRWY/LB1

Departure

Time 2026-05-04 15:42
Airport Seville Airport (LEZL)

Arrival

Time 2026-05-04 17:37
Airport Paris-Orly Airport (LFPO)
Time Latitude Longitude Altitude Speed Heading
2026-05-04 14:28 37.42214 -5.89947 96 ft 0 kts 314°
2026-05-04 14:41 37.42213 -5.89947 94 ft 0 kts 314°
2026-05-04 14:48 37.42213 -5.89946 94 ft 0 kts 314°
2026-05-04 15:13 37.42213 -5.89945 121 ft 0 kts 314°
2026-05-04 15:16 37.42212 -5.89945 121 ft 0 kts 314°
2026-05-04 15:32 37.42207 -5.89938 94 ft 4 kts 314°
2026-05-04 15:32 37.42175 -5.89892 94 ft 4 kts 277°
2026-05-04 15:33 37.42185 -5.89857 92 ft 1 kts 224°
2026-05-04 15:35 37.42185 -5.89858 92 ft 0 kts 224°
2026-05-04 15:36 37.42161 -5.89886 94 ft 5 kts 224°
2026-05-04 15:36 37.42132 -5.89919 94 ft 6 kts 211°
2026-05-04 15:36 37.42090 -5.89922 95 ft 7 kts 174°
2026-05-04 15:37 37.42039 -5.89903 95 ft 9 kts 159°
2026-05-04 15:37 37.41990 -5.89849 96 ft 11 kts 114°
2026-05-04 15:37 37.41982 -5.89737 97 ft 15 kts 90°
2026-05-04 15:37 37.41983 -5.89595 97 ft 17 kts 89°
2026-05-04 15:38 37.41984 -5.89435 98 ft 19 kts 90°
2026-05-04 15:38 37.41983 -5.89262 100 ft 21 kts 89°
2026-05-04 15:38 37.41985 -5.89074 101 ft 22 kts 89°
2026-05-04 15:38 37.41986 -5.88874 102 ft 24 kts 90°
2026-05-04 15:39 37.41986 -5.88662 104 ft 25 kts 90°
2026-05-04 15:39 37.41988 -5.88440 105 ft 26 kts 89°
2026-05-04 15:39 37.41988 -5.87961 107 ft 29 kts 90°
2026-05-04 15:40 37.41989 -5.87707 109 ft 29 kts 90°
2026-05-04 15:40 37.41991 -5.87446 112 ft 30 kts 89°
2026-05-04 15:40 37.41939 -5.87304 115 ft 14 kts 164°
2026-05-04 15:40 37.41861 -5.87356 116 ft 14 kts 232°
2026-05-04 15:41 37.41808 -5.87457 116 ft 11 kts 237°
2026-05-04 15:41 37.41800 -5.87513 116 ft 2 kts 269°
2026-05-04 15:41 37.41800 -5.87698 113 ft 54 kts 270°
2026-05-04 15:41 37.41796 -5.88470 107 ft 119 kts 269°
2026-05-04 15:42 37.41793 -5.89734 120 ft 165 kts 270°
2026-05-04 15:42 37.41797 -5.91210 576 ft 171 kts 271°
2026-05-04 15:42 37.41885 -5.92739 1122 ft 180 kts 285°
2026-05-04 15:42 37.42544 -5.94124 1568 ft 195 kts 311°
2026-05-04 15:43 37.43637 -5.95283 1863 ft 218 kts 320°
2026-05-04 15:43 37.44897 -5.96513 2192 ft 240 kts 319°
2026-05-04 15:43 37.46228 -5.97860 2778 ft 250 kts 318°
2026-05-04 15:43 37.47570 -5.99281 3529 ft 252 kts 317°
2026-05-04 15:44 37.48443 -6.00238 4067 ft 252 kts 316°
2026-05-04 15:44 37.49756 -6.01714 4831 ft 255 kts 316°
2026-05-04 15:44 37.51071 -6.03231 5542 ft 258 kts 316°
2026-05-04 15:44 37.52397 -6.04780 6303 ft 260 kts 315°
2026-05-04 15:45 37.53724 -6.06341 6989 ft 264 kts 315°
2026-05-04 15:45 37.55076 -6.07940 7647 ft 268 kts 315°
2026-05-04 15:45 37.56445 -6.09561 8341 ft 272 kts 315°
2026-05-04 15:45 37.58039 -6.10860 9021 ft 279 kts 339°
2026-05-04 15:46 37.59988 -6.11130 9675 ft 290 kts
2026-05-04 15:46 37.61899 -6.10198 10027 ft 302 kts 34°
2026-05-04 15:46 37.63532 -6.08438 10234 ft 319 kts 39°
2026-05-04 15:46 37.65237 -6.06517 10434 ft 339 kts 40°
2026-05-04 15:47 37.67042 -6.04484 10629 ft 354 kts 39°
2026-05-04 15:47 37.68892 -6.02406 10814 ft 358 kts 39°
2026-05-04 15:47 37.70775 -6.00301 11292 ft 363 kts 39°
2026-05-04 15:47 37.72677 -5.98179 11906 ft 367 kts 39°
2026-05-04 15:48 37.74600 -5.96038 12523 ft 370 kts 39°
2026-05-04 15:48 37.76547 -5.93875 13120 ft 374 kts 39°
2026-05-04 15:48 37.80505 -5.89479 14236 ft 382 kts 38°
2026-05-04 15:49 37.82506 -5.87247 14791 ft 386 kts 38°
2026-05-04 15:49 37.84538 -5.84979 15325 ft 390 kts 38°
2026-05-04 15:49 37.86580 -5.82692 15846 ft 394 kts 38°
2026-05-04 15:49 37.88611 -5.80411 16399 ft 397 kts 38°
2026-05-04 15:50 37.90715 -5.78051 16946 ft 400 kts 38°
2026-05-04 15:50 37.92809 -5.75704 17498 ft 404 kts 37°
2026-05-04 15:50 37.94924 -5.73336 18008 ft 408 kts 37°
2026-05-04 15:50 37.97059 -5.70949 18488 ft 411 kts 37°
2026-05-04 15:51 37.99212 -5.68540 18933 ft 415 kts 37°
2026-05-04 15:51 38.01383 -5.66100 19382 ft 418 kts 37°
2026-05-04 15:51 38.03567 -5.63639 19855 ft 421 kts 37°
2026-05-04 15:51 38.05766 -5.61161 20381 ft 424 kts 37°
2026-05-04 15:52 38.07975 -5.58673 20858 ft 426 kts 37°
2026-05-04 15:52 38.10203 -5.56160 21313 ft 429 kts 37°
2026-05-04 15:52 38.12443 -5.53633 21769 ft 432 kts 37°
2026-05-04 15:52 38.14703 -5.51078 22209 ft 436 kts 37°
2026-05-04 15:53 38.16976 -5.48508 22651 ft 439 kts 37°
2026-05-04 15:53 38.19264 -5.45917 23083 ft 442 kts 37°
2026-05-04 15:53 38.21569 -5.43304 23500 ft 445 kts 37°
2026-05-04 15:53 38.23886 -5.40675 23855 ft 448 kts 37°
2026-05-04 15:54 38.26222 -5.38025 24198 ft 450 kts 37°
2026-05-04 15:54 38.28569 -5.35360 24539 ft 453 kts 37°
2026-05-04 15:54 38.30930 -5.32677 24863 ft 456 kts 37°
2026-05-04 15:54 38.33307 -5.29976 25135 ft 460 kts 37°
2026-05-04 15:55 38.35702 -5.27254 25455 ft 463 kts 37°
2026-05-04 15:55 38.38109 -5.24512 25782 ft 465 kts 37°
2026-05-04 15:55 38.40529 -5.21748 26100 ft 468 kts 37°
2026-05-04 15:55 38.42960 -5.18968 26429 ft 470 kts 37°
2026-05-04 15:56 38.45420 -5.16211 26746 ft 470 kts 33°
2026-05-04 15:56 38.48129 -5.13898 27053 ft 465 kts 22°
2026-05-04 15:56 38.51062 -5.12208 27358 ft 460 kts 13°
2026-05-04 15:56 38.54127 -5.11158 27685 ft 454 kts
2026-05-04 15:57 38.57237 -5.10746 28034 ft 446 kts 354°
2026-05-04 15:57 38.60317 -5.10921 28343 ft 442 kts 348°
2026-05-04 15:57 38.63390 -5.11243 28641 ft 444 kts 348°
2026-05-04 15:57 38.66474 -5.11565 28926 ft 446 kts 348°
2026-05-04 15:58 38.69578 -5.11886 29223 ft 448 kts 348°
2026-05-04 15:58 38.72689 -5.12201 29511 ft 450 kts 348°
2026-05-04 15:58 38.75822 -5.12514 29801 ft 452 kts 348°
2026-05-04 15:58 38.78963 -5.12830 30112 ft 454 kts 348°
2026-05-04 15:59 38.82117 -5.13151 30381 ft 455 kts 348°
2026-05-04 15:59 38.85275 -5.13476 30732 ft 454 kts 348°
2026-05-04 15:59 38.88428 -5.13799 31066 ft 454 kts 348°
2026-05-04 15:59 38.91573 -5.14122 31403 ft 454 kts 348°
2026-05-04 16:00 38.94735 -5.14389 31725 ft 457 kts 352°
2026-05-04 16:00 38.97942 -5.14108 32044 ft 467 kts
2026-05-04 16:00 39.01134 -5.13128 32384 ft 477 kts 12°
2026-05-04 16:00 39.04211 -5.11440 32701 ft 486 kts 22°
2026-05-04 16:01 39.07077 -5.09178 33002 ft 490 kts 27°
2026-05-04 16:01 39.09943 -5.06798 33312 ft 490 kts 27°
2026-05-04 16:01 39.12806 -5.04422 33623 ft 489 kts 27°
2026-05-04 16:01 39.15667 -5.02052 33918 ft 489 kts 27°
2026-05-04 16:02 39.18536 -4.99674 34174 ft 489 kts 27°
2026-05-04 16:02 39.21401 -4.97294 34417 ft 489 kts 27°
2026-05-04 16:02 39.27124 -4.92544 34861 ft 490 kts 27°
2026-05-04 16:03 39.29989 -4.90162 35069 ft 491 kts 27°
2026-05-04 16:03 39.32855 -4.87773 35284 ft 491 kts 27°
2026-05-04 16:03 39.35728 -4.85378 35517 ft 491 kts 27°
2026-05-04 16:03 39.38596 -4.82984 35737 ft 491 kts 27°
2026-05-04 16:04 39.41460 -4.80586 35958 ft 491 kts 27°
2026-05-04 16:04 39.47197 -4.75785 36382 ft 491 kts 27°
2026-05-04 16:04 39.50066 -4.73380 36613 ft 491 kts 27°
2026-05-04 16:05 39.52971 -4.70944 36812 ft 491 kts 27°
2026-05-04 16:05 39.55838 -4.68534 36983 ft 491 kts 28°
2026-05-04 16:05 39.61536 -4.63735 37338 ft 491 kts 28°
2026-05-04 16:06 39.64403 -4.61321 37505 ft 491 kts 28°
2026-05-04 16:06 39.72072 -4.54848 37929 ft 491 kts 28°
2026-05-04 16:07 39.75864 -4.51651 37953 ft 491 kts 28°
2026-05-04 16:08 39.87323 -4.41927 37945 ft 491 kts 28°
2026-05-04 16:09 40.01962 -4.30701 37964 ft 484 kts 19°
2026-05-04 16:10 40.14185 -4.23233 37959 ft 485 kts 20°
2026-05-04 16:11 40.26418 -4.15743 37967 ft 485 kts 20°
2026-05-04 16:12 40.44736 -4.04478 37959 ft 483 kts 20°
2026-05-04 16:13 40.56901 -3.96948 37982 ft 483 kts 20°
2026-05-04 16:14 40.69050 -3.89397 37988 ft 484 kts 20°
2026-05-04 16:16 40.84279 -3.79888 37967 ft 485 kts 20°
2026-05-04 16:17 40.99533 -3.70322 37982 ft 486 kts 21°
2026-05-04 16:18 41.11761 -3.62618 37981 ft 485 kts 21°
2026-05-04 16:19 41.26216 -3.54332 37996 ft 483 kts 17°
2026-05-04 16:20 41.41764 -3.45973 37996 ft 483 kts 18°
2026-05-04 16:22 41.57324 -3.37371 38005 ft 484 kts 18°
2026-05-04 16:23 41.76025 -3.27026 38006 ft 484 kts 19°
2026-05-04 16:25 41.94684 -3.16628 38015 ft 484 kts 19°
2026-05-04 16:26 42.16426 -3.04424 38002 ft 484 kts 19°
2026-05-04 16:28 42.31966 -2.95657 38001 ft 484 kts 19°
2026-05-04 16:29 42.52224 -2.79781 38014 ft 489 kts 40°
2026-05-04 16:31 42.64952 -2.64428 38015 ft 490 kts 40°
2026-05-04 16:32 42.80219 -2.45867 38021 ft 491 kts 40°
2026-05-04 16:33 42.90394 -2.33424 38031 ft 491 kts 40°
2026-05-04 16:34 42.98034 -2.24059 38021 ft 492 kts 40°
2026-05-04 16:35 43.13265 -2.05230 38049 ft 492 kts 41°
2026-05-04 16:36 43.20892 -1.95792 38054 ft 492 kts 41°
2026-05-04 16:37 43.28456 -1.86377 38041 ft 491 kts 41°
2026-05-04 16:37 43.33917 -1.80828 38046 ft 488 kts 28°
2026-05-04 16:38 43.39797 -1.76131 38048 ft 489 kts 30°
2026-05-04 16:39 43.53974 -1.63137 38054 ft 489 kts 32°
2026-05-04 16:40 43.65340 -1.52823 38051 ft 489 kts 32°
2026-05-04 16:41 43.79525 -1.39905 38035 ft 488 kts 32°
2026-05-04 16:43 43.93668 -1.26895 38030 ft 486 kts 33°
2026-05-04 16:43 44.02134 -1.19112 38019 ft 486 kts 33°
2026-05-04 16:45 44.19011 -1.03468 38005 ft 485 kts 33°
2026-05-04 16:46 44.33022 -0.90397 37994 ft 484 kts 34°
2026-05-04 16:47 44.44513 -0.80587 38001 ft 484 kts 27°
2026-05-04 16:48 44.56484 -0.71876 37975 ft 485 kts 27°
2026-05-04 16:49 44.68482 -0.63100 37988 ft 486 kts 27°
2026-05-04 16:50 44.80448 -0.54298 37993 ft 487 kts 27°
2026-05-04 16:51 44.89463 -0.47650 37989 ft 487 kts 27°
2026-05-04 16:52 45.01460 -0.38759 37974 ft 487 kts 27°
2026-05-04 16:53 45.10442 -0.32061 37962 ft 486 kts 27°
2026-05-04 16:54 45.21421 -0.23868 37963 ft 487 kts 27°
2026-05-04 16:55 45.39403 -0.10347 37956 ft 485 kts 28°
2026-05-04 16:56 45.54316 0.00942 37933 ft 485 kts 27°
2026-05-04 16:57 45.63276 0.07746 37950 ft 486 kts 28°
2026-05-04 16:58 45.75159 0.16813 37968 ft 485 kts 28°
2026-05-04 17:00 45.93052 0.30557 37957 ft 485 kts 28°
2026-05-04 17:01 46.07918 0.42069 37940 ft 486 kts 28°
2026-05-04 17:02 46.19814 0.51321 37948 ft 486 kts 28°
2026-05-04 17:03 46.28726 0.58287 37944 ft 485 kts 28°
2026-05-04 17:03 46.37650 0.65276 37952 ft 485 kts 28°
2026-05-04 17:04 46.49484 0.74594 37931 ft 486 kts 28°
2026-05-04 17:05 46.55733 0.78608 37254 ft 493 kts 15°
2026-05-04 17:05 46.62400 0.80772 36089 ft 491 kts 11°
2026-05-04 17:06 46.68988 0.82829 35371 ft 480 kts 11°
2026-05-04 17:06 46.72252 0.83864 34822 ft 480 kts 12°
2026-05-04 17:07 46.78777 0.85940 33712 ft 480 kts 12°
2026-05-04 17:07 46.80983 0.86644 33337 ft 479 kts 12°
2026-05-04 17:07 46.85274 0.88013 32664 ft 475 kts 12°
2026-05-04 17:07 46.88502 0.89042 32126 ft 473 kts 12°
2026-05-04 17:08 46.91715 0.90065 31594 ft 471 kts 12°
2026-05-04 17:08 46.98084 0.92099 30572 ft 466 kts 12°
2026-05-04 17:08 47.01245 0.93112 30094 ft 462 kts 12°
2026-05-04 17:09 47.04378 0.94112 29569 ft 458 kts 12°
2026-05-04 17:09 47.07472 0.95097 29117 ft 453 kts 12°
2026-05-04 17:09 47.10538 0.96073 28660 ft 448 kts 12°
2026-05-04 17:10 47.16546 0.97981 27785 ft 437 kts 12°
2026-05-04 17:10 47.25325 1.00782 26541 ft 423 kts 12°
2026-05-04 17:11 47.28196 1.01702 26131 ft 420 kts 12°
2026-05-04 17:11 47.31043 1.02618 25732 ft 417 kts 12°
2026-05-04 17:11 47.36677 1.04437 24884 ft 412 kts 12°
2026-05-04 17:12 47.39469 1.05341 24465 ft 411 kts 12°
2026-05-04 17:12 47.44960 1.07516 23762 ft 403 kts 19°
2026-05-04 17:13 47.52707 1.11490 22883 ft 386 kts 19°
2026-05-04 17:14 47.60265 1.15292 21557 ft 377 kts 19°
2026-05-04 17:14 47.62742 1.16546 21125 ft 374 kts 19°
2026-05-04 17:14 47.67628 1.19040 20250 ft 369 kts 19°
2026-05-04 17:15 47.70035 1.20271 19677 ft 364 kts 19°
2026-05-04 17:15 47.74791 1.22709 18416 ft 357 kts 19°
2026-05-04 17:16 47.79432 1.25081 17520 ft 350 kts 19°
2026-05-04 17:16 47.86184 1.28530 16523 ft 327 kts 19°
2026-05-04 17:17 47.88306 1.29622 16142 ft 318 kts 19°
2026-05-04 17:17 47.94415 1.32767 15030 ft 309 kts 19°
2026-05-04 17:18 47.96444 1.33813 14662 ft 308 kts 19°
2026-05-04 17:18 48.00484 1.35898 13920 ft 307 kts 19°
2026-05-04 17:19 48.04512 1.37989 13153 ft 305 kts 19°
2026-05-04 17:19 48.08199 1.41032 12592 ft 310 kts 35°
2026-05-04 17:20 48.11821 1.44639 12088 ft 309 kts 29°
2026-05-04 17:20 48.15172 1.46210 11556 ft 305 kts
2026-05-04 17:20 48.18000 1.46486 11032 ft 303 kts
2026-05-04 17:21 48.22192 1.46917 10303 ft 300 kts
2026-05-04 17:21 48.26319 1.47352 9655 ft 295 kts
2026-05-04 17:22 48.28371 1.47564 9235 ft 295 kts
2026-05-04 17:22 48.30399 1.47770 8905 ft 289 kts
2026-05-04 17:23 48.36287 1.48372 7921 ft 281 kts
2026-05-04 17:23 48.38245 1.48573 7896 ft 283 kts
2026-05-04 17:23 48.42165 1.48975 7286 ft 279 kts
2026-05-04 17:24 48.44095 1.49172 6982 ft 276 kts
2026-05-04 17:24 48.49741 1.49759 6096 ft 266 kts
2026-05-04 17:25 48.51577 1.49950 5804 ft 263 kts
2026-05-04 17:25 48.55170 1.50443 5252 ft 255 kts 17°
2026-05-04 17:26 48.57779 1.53555 4939 ft 233 kts 63°
2026-05-04 17:26 48.59088 1.60636 4936 ft 234 kts 76°
2026-05-04 17:27 48.59857 1.65324 4940 ft 221 kts 76°
2026-05-04 17:27 48.60593 1.69823 4940 ft 220 kts 75°
2026-05-04 17:28 48.61290 1.74084 4928 ft 197 kts 76°
2026-05-04 17:29 48.62258 1.80043 4318 ft 193 kts 75°
2026-05-04 17:29 48.62738 1.85303 3999 ft 188 kts 88°
2026-05-04 17:30 48.63554 1.91072 4015 ft 187 kts 73°
2026-05-04 17:31 48.64256 1.94811 4016 ft 185 kts 73°
2026-05-04 17:31 48.65320 2.00437 4004 ft 186 kts 73°
2026-05-04 17:32 48.66031 2.04208 4007 ft 186 kts 73°
2026-05-04 17:33 48.67094 2.09864 3773 ft 185 kts 73°
2026-05-04 17:33 48.67445 2.11735 3542 ft 185 kts 73°
2026-05-04 17:34 48.68487 2.17297 2808 ft 183 kts 73°
2026-05-04 17:34 48.68836 2.19165 2559 ft 184 kts 74°
2026-05-04 17:35 48.69871 2.24713 1841 ft 174 kts 74°
2026-05-04 17:35 48.70478 2.27979 1372 ft 153 kts 74°
2026-05-04 17:35 48.70764 2.29519 1164 ft 151 kts 74°
2026-05-04 17:36 48.71049 2.31052 963 ft 151 kts 74°
2026-05-04 17:36 48.71334 2.32588 768 ft 151 kts 73°
2026-05-04 17:36 48.71618 2.34120 569 ft 151 kts 73°
2026-05-04 17:36 48.71918 2.35733 371 ft 151 kts 73°
2026-05-04 17:37 48.72195 2.37200 292 ft 125 kts 73°
2026-05-04 17:37 48.72343 2.38029 297 ft 42 kts 75°
2026-05-04 17:37 48.72416 2.38410 296 ft 30 kts 71°
2026-05-04 17:37 48.72517 2.38617 297 ft 20 kts 20°
2026-05-04 17:38 48.72653 2.38695 296 ft 21 kts 19°
2026-05-04 17:38 48.72792 2.38762 297 ft 17 kts 12°
2026-05-04 17:38 48.72842 2.38644 293 ft 16 kts 268°
2026-05-04 17:38 48.72829 2.38473 292 ft 17 kts 261°
2026-05-04 17:39 48.72765 2.38091 291 ft 20 kts 253°
2026-05-04 17:39 48.72725 2.37888 294 ft 21 kts 254°
2026-05-04 17:39 48.72687 2.37673 294 ft 22 kts 255°
2026-05-04 17:40 48.72646 2.37446 297 ft 23 kts 254°
2026-05-04 17:40 48.72602 2.37209 297 ft 24 kts 254°
2026-05-04 17:40 48.72557 2.36961 294 ft 25 kts 255°
2026-05-04 17:40 48.72511 2.36710 294 ft 20 kts 254°
2026-05-04 17:41 48.72545 2.36606 296 ft 8 kts 314°
2026-05-04 17:41 48.72556 2.36522 295 ft 9 kts 264°
2026-05-04 17:41 48.72557 2.36432 293 ft 7 kts 321°
2026-05-04 17:41 48.72609 2.36396 294 ft 9 kts 343°
2026-05-04 17:42 48.72629 2.36387 295 ft 0 kts 343°